Home > Weather > Târgu Mureş > Past weeks

Flag for Romania Weather for the Past 2 Weeks in Târgu Mureş, Romania

Now
32 °F

Clear.


Feels Like: 26 °F
Forecast: 30 / 48 °F
Wind: 6 mph from East

Location: Tirgu Mures Airport

Current Time: Feb 9, 2016 at 12:25:48 AM

Latest Report: Feb 8, 2016 at 11:00 PM


Visibility: 5 mi

Pressure: 30.07 "Hg

Humidity: 87%

Dew point: 28 °F

Location of Târgu MureşLocation

Historic Weather in Târgu Mureş — Graph

°F

Târgu Mureş Temperature Yesterday

Maximum temperature yesterday: 52 °F (at 3:00 PM)
Minimum temperature yesterday: 25 °F (at 7:00 AM)
Average temperature yesterday: 36 °F

High & Low Weather Summary for the Past Weeks

 TemperatureHumidityPressure
High52 °F (Jan 31, 12:30 PM)100% (Jan 26, 2:00 AM)30.54 "Hg (Jan 26, 2:00 AM)
Low18 °F (Jan 24, 11:00 PM)46% (Feb 7, 4:00 PM)29.77 "Hg (Feb 4, 4:00 AM)
Average35 °F88%30.21 "Hg
* Reported Jan 24 11:00 PM — Feb 8 11:00 PM, Târgu Mureş, Weather by CustomWeather, © 2016

Note: Actual official high and low records may vary slightly from our data, if they occured in-between our weather recording intervals... More about our weather records

Advertising

Târgu Mureş Weather History for the Previous 24 Hours

 ConditionsComfort  
Time TempWeatherWind HumidityBarometerVisibility
11:00 PM
Mon, Feb 8
32 °FClear.6 mph87%30.07 "Hg5 mi
10:00 PM32 °FClear.7 mph87%30.07 "Hg5 mi
9:00 PM32 °FClear.3 mph93%30.07 "Hg5 mi
8:30 PM34 °FClear.2 mph87%30.07 "Hg5 mi
8:00 PM34 °FClear.5 mph87%30.07 "Hg5 mi
7:30 PM36 °FClear.2 mph81%30.07 "Hg5 mi
7:00 PM37 °FPassing clouds.3 mph81%30.07 "HgN/A
6:30 PM37 °FClear.No wind81%30.07 "Hg10 mi
6:00 PM41 °FClear.1 mph76%30.04 "Hg10 mi
5:30 PM46 °FSunny.5 mph66%30.04 "Hg10 mi
5:00 PM48 °FSunny.3 mph62%30.04 "Hg10 mi
4:30 PM50 °FPassing clouds.5 mph54%30.07 "HgN/A
4:00 PM52 °FSunny.5 mph47%30.07 "Hg10 mi
3:30 PM52 °FSunny.6 mph50%30.07 "Hg10 mi
3:00 PM52 °FSunny.No wind50%30.07 "Hg10 mi
2:30 PM50 °FSunny.1 mph50%30.09 "Hg10 mi
2:00 PM48 °FPassing clouds.3 mph54%30.09 "HgN/A
1:30 PM46 °FPassing clouds.5 mph62%30.09 "HgN/A
1:00 PM46 °FPassing clouds.5 mph62%30.12 "HgN/A
12:30 PM46 °FPassing clouds.5 mph62%30.12 "HgN/A
12:00 PM43 °FSunny.No wind66%30.12 "Hg10 mi
11:30 AM41 °FPassing clouds.5 mph76%30.15 "Hg5 mi
11:00 AM37 °FPassing clouds.5 mph81%30.15 "Hg4 mi
10:30 AM36 °FPassing clouds.6 mph81%30.15 "Hg4 mi
10:00 AM34 °FPassing clouds.6 mph87%30.15 "Hg4 mi
9:30 AM32 °FPassing clouds.6 mph87%30.15 "Hg4 mi
9:00 AM28 °FPassing clouds.2 mph93%30.15 "Hg4 mi
8:30 AM27 °FPassing clouds.5 mph93%30.15 "Hg4 mi
8:00 AM25 °FClear.5 mph93%30.15 "Hg5 mi
7:30 AM25 °FClear.6 mph100%30.15 "Hg4 mi
7:00 AM25 °FClear.8 mph93%30.15 "Hg4 mi
6:30 AM28 °FClear.8 mph93%30.12 "Hg5 mi
6:00 AM27 °FClear.5 mph93%30.12 "Hg5 mi
5:30 AM27 °FClear.6 mph100%30.12 "Hg5 mi
5:00 AM27 °FClear.7 mph93%30.12 "Hg5 mi
4:00 AM27 °FClear.5 mph93%30.12 "Hg4 mi
3:00 AM27 °FIce fog.7 mph93%30.15 "Hg4 mi
2:00 AM28 °FClear.6 mph93%30.15 "Hg5 mi
1:00 AM28 °FClear.5 mph93%30.15 "Hg5 mi
12:00 AM28 °FClear.5 mph93%30.15 "Hg4 mi
Weather by CustomWeather, © 2016

See weather overviewHow to use our weather pages